SCP
-0 0 0 -0 -0 -0 -0 -0 -0 -0 -0 -0 -0 -0 -0 -0 -0 -0 -0 -0 -0 -0 0 0 0 0 -0 -0 -0 -0 -0 -0
-0 0 0 0 0 -0 -0 -0 -0 -0 -0 -0 -0 -0 -0 -0 -0 -0 0 0 0 0 0 0 0 0 0 -0 -0 -0 -0 -0
-0 0 0 0 -0 -0 -0 -0 -0 -0 -0 -0 -0 -0 -0 0 0 0 0 0 0 0 0 0 0 0 0 0 0 -0 -0 -0
-0 0 0 0 0 0 0 -0 -0 0 -0 -0 -0 -0 -0 0 0 0 0 0 0 0 0 0 0 0 0 0 0 0 0 0
0 0 0 0 0 0 0 0 0 0 -0 -0 -0 -0 0 0 0 0 0 0 0 0 0 0 0 0 0 0 0 0 0 0
0 0 0 0 0 0 0 -0 0 0 0 0 0 0 0 0 0 0 0 0 0 0 0 0 0 0 0 0 0 0 0 0
0 0 0 0 0 0 0 0 0 0 0 0 0 0 0 -0 0 0 0 0 0 0 0 0 0 0 0 0 0 0 0 0
0 0 0 0 0 0 0 0 0 0 0 0 0 0 -0 -0 0 0 0 0 0 0 0 0 0 0 0 0 0 0 0 0
0 0 0 0 0 0 0 0 0 0 0 0 0 0 0 -0 0 0 0 0 0 0 0 0 0 0 0 0 0 0 0 0
1 0 0 0 0 0 1 0 -0 0 0 0 0 0 0 -0 0 0 0 0 0 0 0 0 0 0 0 0 0 0 0 0
1 1 1 0 0 0 1 0 -0 0 0 0 1 1 0 0 0 1 1 1 0 1 0 0 0 0 0 0 0 0 0 1
3 2 2 1 1 1 1 2 1 1 0 1 1 1 1 0 0 0 0 0 0 0 0 0 1 1 0 0 0 0 0 1
5 5 4 1 1 1 1 2 2 1 1 0 1 1 2 1 1 1 0 0 0 1 1 0 0 0 0 0 0 1 1 1
11 8 5 4 2 2 2 2 2 2 2 1 2 3 2 1 1 1 1 1 1 1 1 1 1 1 1 2 1 1 2 2
7 8 7 6 5 3 2 3 2 2 3 3 3 1 1 1 1 1 2 1 2 1 1 1 0 0 1 1 1 2 4 3
5 4 3 3 4 5 3 3 2 2 3 2 1 1 1 1 1 2 2 2 1 2 2 1 1 2 1 1 2 2 2 2
2 2 1 2 3 3 3 2 3 2 2 1 1 1 1 2 2 2 2 2 2 2 2 1 3 2 1 1 2 2 2 1
1 2 2 2 2 2 2 3 3 5 5 3 1 1 1 1 1 2 3 3 2 2 2 1 1 1 0 0 1 1 1 0
1 1 2 2 2 2 2 2 3 3 3 3 3 4 5 4 4 3 1 3 3 1 2 1 0 0 0 1 2 1 1 2
Wind_Speed_500mb
50 53 47 42 42 42 45 42 38 33 26 22 23 28 27 23 20 17 16 16 15 15 15 13 11 10 8 7 6 7 10 14
48 53 47 42 41 40 41 41 36 32 25 20 20 25 26 23 19 16 15 15 14 14 14 12 10 11 9 7 6 3 5 5
46 55 47 43 40 40 39 37 34 30 25 21 22 27 26 23 18 14 11 11 12 12 12 13 13 13 13 12 11 11 9 7
42 57 51 47 43 40 38 36 34 30 26 23 25 27 26 21 16 13 11 10 9 10 11 13 14 15 16 16 15 14 16 17
42 52 52 47 43 40 38 34 31 28 25 24 26 27 26 22 17 14 10 9 10 11 10 11 13 14 15 16 14 13 17 20
46 46 50 49 44 40 37 37 35 33 31 29 29 29 27 23 19 17 13 13 12 13 13 13 13 13 14 13 11 13 24 23
53 45 42 40 45 39 38 38 37 35 34 33 33 31 28 21 18 17 15 16 16 16 16 16 16 16 16 12 7 15 21 19
50 47 44 43 36 35 33 39 36 33 32 31 29 29 27 20 15 19 24 22 24 22 20 20 16 19 14 7 8 18 22 23
50 45 46 49 38 39 37 27 24 20 22 25 25 26 30 29 28 24 26 24 18 23 20 23 18 12 14 16 29 33 35 34
46 45 46 47 43 48 39 23 26 23 19 12 18 23 31 35 31 34 31 27 28 22 24 20 21 26 24 29 24 22 21 26
48 47 41 45 39 48 36 26 32 29 27 24 28 28 25 28 30 41 36 44 46 42 33 32 29 23 32 25 21 30 32 35
53 49 44 48 41 50 49 26 34 26 31 29 31 31 34 36 34 41 43 37 39 41 28 38 33 34 42 41 42 31 31 32
53 53 48 39 37 39 52 43 35 35 26 30 28 34 41 42 42 47 49 36 31 29 36 37 43 46 37 30 29 30 37 30
46 49 52 41 37 32 43 41 37 33 33 31 28 37 35 39 44 51 42 39 35 40 38 38 38 36 41 39 43 40 35 48
43 48 52 55 36 34 26 35 30 33 32 34 35 43 51 51 48 41 40 42 38 43 44 42 44 42 47 42 40 42 40 41
44 52 45 43 50 36 35 32 36 32 33 37 51 48 41 43 39 43 45 41 45 47 46 38 46 51 55 48 47 52 52 49
34 29 31 36 46 49 38 36 32 34 33 33 31 34 37 40 44 41 40 42 40 44 49 54 55 52 52 39 44 39 38 46
33 36 32 30 31 41 46 40 41 25 33 26 31 30 35 37 35 35 33 38 42 42 48 49 59 58 53 47 45 37 22 21
31 25 33 35 29 24 28 34 37 45 40 28 30 34 30 24 31 33 39 53 46 56 42 60 43 67 47 52 44 38 47 49
Wind_Direction_500mb
145 155 153 154 158 167 170 171 169 168 164 160 158 160 155 147 139 139 141 142 155 158 156 161 164 162 149 138 133 96 106 103
151 153 150 152 159 167 171 172 174 175 174 171 169 169 163 156 150 150 150 153 165 171 175 182 190 196 203 207 207 191 138 129
164 153 151 152 158 164 170 175 181 183 185 185 181 177 172 168 161 162 159 163 174 182 191 203 213 224 235 244 252 255 256 256
168 160 157 156 159 161 169 178 183 189 193 192 186 183 180 179 176 179 180 186 191 197 201 215 229 240 250 259 267 272 275 277
156 164 161 159 159 161 164 173 180 184 190 190 188 187 188 188 194 197 201 207 213 219 221 228 240 250 261 269 278 292 298 292
157 166 167 166 163 163 165 167 173 179 185 187 190 191 195 200 206 207 216 222 224 233 238 244 252 262 267 276 283 341 336 321
163 161 170 168 170 169 172 174 175 179 185 189 193 194 197 207 213 227 231 241 239 242 245 250 257 265 273 281 339 308 327 334
166 165 176 172 173 171 182 180 182 184 189 194 200 200 203 184 236 212 244 260 258 254 252 249 260 273 281 259 326 289 294 303
166 169 178 184 178 175 199 197 183 195 199 203 210 207 205 183 212 232 242 268 287 277 261 255 265 275 277 265 259 241 247 250
171 173 175 187 189 175 203 213 179 196 207 227 229 242 211 194 209 237 219 231 261 270 261 261 243 245 255 274 288 286 283 278
174 177 183 194 195 180 187 208 182 203 216 209 227 248 245 213 215 235 227 218 209 225 231 250 263 245 259 270 258 266 265 279
180 179 185 190 206 194 190 186 198 204 203 219 219 240 248 233 214 245 243 239 237 226 226 231 233 240 241 238 249 244 252 271
176 181 183 189 207 212 201 201 203 202 219 213 228 233 254 255 230 234 243 241 248 239 236 246 235 247 253 261 265 263 261 262
178 191 192 188 207 220 209 212 216 210 214 218 232 223 226 235 245 243 244 236 237 245 235 241 245 241 250 250 248 252 261 272
199 198 196 192 188 211 221 210 214 224 223 221 233 238 237 245 258 256 251 243 236 253 253 245 247 241 245 245 253 258 249 255
202 211 211 207 201 201 203 216 219 223 233 236 239 246 249 250 265 263 258 260 245 249 261 250 254 250 244 238 248 256 265 278
177 188 193 196 203 203 206 211 219 229 235 252 257 263 269 274 274 266 266 265 260 263 268 255 244 250 254 249 251 265 273 282
179 190 199 208 208 209 208 210 218 214 219 240 252 278 287 285 287 277 273 264 275 256 267 270 262 252 263 269 266 261 271 258
185 192 188 197 204 214 215 213 218 227 234 241 259 252 256 264 232 249 273 257 258 245 244 280 296 322 289 288 288 285 272 271
Wind_Speed_850mb
50 53 47 42 42 42 45 42 38 33 26 22 23 28 27 23 20 17 16 16 15 15 15 13 11 10 8 7 6 7 10 14
48 53 47 42 41 40 41 41 36 32 25 20 20 25 26 23 19 16 15 15 14 14 14 12 10 11 9 7 6 3 5 5
46 55 47 43 40 40 39 37 34 30 25 21 22 27 26 23 18 14 11 11 12 12 12 13 13 13 13 12 11 11 9 7
42 57 51 47 43 40 38 36 34 30 26 23 25 27 26 21 16 13 11 10 9 10 11 13 14 15 16 16 15 14 16 17
42 52 52 47 43 40 38 34 31 28 25 24 26 27 26 22 17 14 10 9 10 11 10 11 13 14 15 16 14 13 17 20
46 46 50 49 44 40 37 37 35 33 31 29 29 29 27 23 19 17 13 13 12 13 13 13 13 13 14 13 11 13 24 23
53 45 42 40 45 39 38 38 37 35 34 33 33 31 28 21 18 17 15 16 16 16 16 16 16 16 16 12 7 15 21 19
50 47 44 43 36 35 33 39 36 33 32 31 29 29 27 20 15 19 24 22 24 22 20 20 16 19 14 7 8 18 22 23
50 45 46 49 38 39 37 27 24 20 22 25 25 26 30 29 28 24 26 24 18 23 20 23 18 12 14 16 29 33 35 34
46 45 46 47 43 48 39 23 26 23 19 12 18 23 31 35 31 34 31 27 28 22 24 20 21 26 24 29 24 22 21 26
48 47 41 45 39 48 36 26 32 29 27 24 28 28 25 28 30 41 36 44 46 42 33 32 29 23 32 25 21 30 32 35
53 49 44 48 41 50 49 26 34 26 31 29 31 31 34 36 34 41 43 37 39 41 28 38 33 34 42 41 42 31 31 32
53 53 48 39 37 39 52 43 35 35 26 30 28 34 41 42 42 47 49 36 31 29 36 37 43 46 37 30 29 30 37 30
46 49 52 41 37 32 43 41 37 33 33 31 28 37 35 39 44 51 42 39 35 40 38 38 38 36 41 39 43 40 35 48
43 48 52 55 36 34 26 35 30 33 32 34 35 43 51 51 48 41 40 42 38 43 44 42 44 42 47 42 40 42 40 41
44 52 45 43 50 36 35 32 36 32 33 37 51 48 41 43 39 43 45 41 45 47 46 38 46 51 55 48 47 52 52 49
34 29 31 36 46 49 38 36 32 34 33 33 31 34 37 40 44 41 40 42 40 44 49 54 55 52 52 39 44 39 38 46
33 36 32 30 31 41 46 40 41 25 33 26 31 30 35 37 35 35 33 38 42 42 48 49 59 58 53 47 45 37 22 21
31 25 33 35 29 24 28 34 37 45 40 28 30 34 30 24 31 33 39 53 46 56 42 60 43 67 47 52 44 38 47 49
Wind_Direction_850mb
145 155 153 154 158 167 170 171 169 168 164 160 158 160 155 147 139 139 141 142 155 158 156 161 164 162 149 138 133 96 106 103
151 153 150 152 159 167 171 172 174 175 174 171 169 169 163 156 150 150 150 153 165 171 175 182 190 196 203 207 207 191 138 129
164 153 151 152 158 164 170 175 181 183 185 185 181 177 172 168 161 162 159 163 174 182 191 203 213 224 235 244 252 255 256 256
168 160 157 156 159 161 169 178 183 189 193 192 186 183 180 179 176 179 180 186 191 197 201 215 229 240 250 259 267 272 275 277
156 164 161 159 159 161 164 173 180 184 190 190 188 187 188 188 194 197 201 207 213 219 221 228 240 250 261 269 278 292 298 292
157 166 167 166 163 163 165 167 173 179 185 187 190 191 195 200 206 207 216 222 224 233 238 244 252 262 267 276 283 341 336 321
163 161 170 168 170 169 172 174 175 179 185 189 193 194 197 207 213 227 231 241 239 242 245 250 257 265 273 281 339 308 327 334
166 165 176 172 173 171 182 180 182 184 189 194 200 200 203 184 236 212 244 260 258 254 252 249 260 273 281 259 326 289 294 303
166 169 178 184 178 175 199 197 183 195 199 203 210 207 205 183 212 232 242 268 287 277 261 255 265 275 277 265 259 241 247 250
171 173 175 187 189 175 203 213 179 196 207 227 229 242 211 194 209 237 219 231 261 270 261 261 243 245 255 274 288 286 283 278
174 177 183 194 195 180 187 208 182 203 216 209 227 248 245 213 215 235 227 218 209 225 231 250 263 245 259 270 258 266 265 279
180 179 185 190 206 194 190 186 198 204 203 219 219 240 248 233 214 245 243 239 237 226 226 231 233 240 241 238 249 244 252 271
176 181 183 189 207 212 201 201 203 202 219 213 228 233 254 255 230 234 243 241 248 239 236 246 235 247 253 261 265 263 261 262
178 191 192 188 207 220 209 212 216 210 214 218 232 223 226 235 245 243 244 236 237 245 235 241 245 241 250 250 248 252 261 272
199 198 196 192 188 211 221 210 214 224 223 221 233 238 237 245 258 256 251 243 236 253 253 245 247 241 245 245 253 258 249 255
202 211 211 207 201 201 203 216 219 223 233 236 239 246 249 250 265 263 258 260 245 249 261 250 254 250 244 238 248 256 265 278
177 188 193 196 203 203 206 211 219 229 235 252 257 263 269 274 274 266 266 265 260 263 268 255 244 250 254 249 251 265 273 282
179 190 199 208 208 209 208 210 218 214 219 240 252 278 287 285 287 277 273 264 275 256 267 270 262 252 263 269 266 261 271 258
185 192 188 197 204 214 215 213 218 227 234 241 259 252 256 264 232 249 273 257 258 245 244 280 296 322 289 288 288 285 272 271